Weather History for Lone Rock, WI

Change the Weather History Date:

Thursday, April 5, 2012

  Actual Average Record
Temperature  
Mean Temperature 46 °F -  
Max Temperature 55 °F 51 °F 73 °F (2005)
Min Temperature 33 °F 31 °F 19 °F (2002)
Degree Days  
Heating Degree Days 20    
Moisture  
Dew Point 27 °F    
Average Humidity 51    
Maximum Humidity 72    
Minimum Humidity 30    
Precipitation  
Precipitation 0.00 in - - ()
Sea Level Pressure  
Sea Level Pressure 30.10 in    
Wind  
Wind Speed 10 mph (ENE)    
Max Wind Speed 15 mph    
Max Gust Speed 21 mph    
Visibility 10 miles    
Events      
Averages and records for this station are not official NWS values.
T = Trace of Precipitation, MM = Missing Value Source: NWS Daily Summary

Daily Weather History Graph

Daily Weather History Graph

Search for Another Location

Airport:

Trip Planner

Search our weather history database for the weather conditions in past years. The results will help you decide how hot, cold, wet, or windy it might be!

Date:

Astronomy

Apr. 05, 2012 Rise Set
Actual Time 6:34 AM CDT 7:32 PM CDT
Civil Twilight 6:05 AM CDT 8:01 PM CDT
Nautical Twilight 5:31 AM CDT 8:36 PM CDT
Astronomical Twilight 4:55 AM CDT 9:12 PM CDT
Moon 6:38 PM CDT (4/5) 5:32 AM CDT (4/5)
Length of Visible Light 13h 55m
Length of Day
12h 57m
Waxing Gibbous, 98% of the Moon is Illuminated
Apr 5
Waxing Gibbous
Apr 6
Full
Apr 13
Last Quarter
Apr 21
New
Apr 29
First Quarter

Hourly Weather History & Observations

Time (CDT) Temp. Windchill Dew Point Humidity Pressure Visibility Wind Dir Wind Speed Gust Speed Precip Events Conditions
12:56 AM 45.0 °F 39.7 °F 28.0 °F 52% 30.02 in 10.0 mi East 10.4 mph - N/A   Clear
1:56 AM 43.0 °F 36.0 °F 27.0 °F 53% 30.03 in 10.0 mi East 13.8 mph - N/A   Clear
2:56 AM 39.9 °F 33.4 °F 27.0 °F 60% 30.02 in 10.0 mi East 10.4 mph - N/A   Clear
3:56 AM 39.9 °F 33.4 °F 26.1 °F 58% 30.01 in 10.0 mi ENE 10.4 mph - N/A   Clear
4:56 AM 37.9 °F 32.1 °F 26.1 °F 62% 30.03 in 10.0 mi ENE 8.1 mph - N/A   Clear
5:56 AM 37.0 °F 30.4 °F 27.0 °F 67% 30.06 in 10.0 mi ENE 9.2 mph - N/A   Clear
6:56 AM 36.0 °F 33.3 °F 27.0 °F 70% 30.09 in 10.0 mi NE 3.5 mph - N/A   Clear
7:56 AM 37.9 °F 30.9 °F 28.0 °F 68% 30.10 in 10.0 mi ENE 10.4 mph - N/A   Clear
8:56 AM 41.0 °F 33.5 °F 27.0 °F 57% 30.12 in 10.0 mi ENE 13.8 mph - N/A   Clear
10:56 AM 46.9 °F - 28.0 °F 48% 30.14 in 10.0 mi ENE 10.4 mph 18.4 mph N/A   Clear
11:56 AM 48.9 °F - 27.0 °F 43% 30.12 in 10.0 mi East 10.4 mph - N/A   Clear
12:56 PM 52.0 °F - 30.0 °F 43% 30.11 in 10.0 mi Variable 6.9 mph - N/A   Clear
1:56 PM 54.0 °F - 28.9 °F 38% 30.10 in 10.0 mi East 13.8 mph - N/A   Clear
2:56 PM 54.0 °F - 28.0 °F 37% 30.09 in 10.0 mi NE 5.8 mph - N/A   Clear
3:56 PM 55.0 °F - 26.1 °F 33% 30.09 in 10.0 mi ENE 12.7 mph 20.7 mph N/A   Clear
4:56 PM 55.0 °F - 24.1 °F 30% 30.09 in 10.0 mi East 13.8 mph 19.6 mph N/A   Clear
5:56 PM 53.1 °F - 26.1 °F 35% 30.11 in 10.0 mi ENE 9.2 mph - N/A   Clear
6:56 PM 50.0 °F - 27.0 °F 41% 30.13 in 10.0 mi East 11.5 mph - N/A   Clear
8:56 PM 45.0 °F 38.2 °F 21.9 °F 40% 30.17 in 10.0 mi East 15.0 mph - N/A   Clear
9:56 PM 41.0 °F 35.8 °F 24.1 °F 51% 30.18 in 10.0 mi East 8.1 mph - N/A   Clear
10:56 PM 37.0 °F - 25.0 °F 62% 30.20 in 10.0 mi Calm Calm - N/A   Clear
11:56 PM 33.1 °F - 25.0 °F 72% 30.22 in 10.0 mi Calm Calm - N/A   Clear